Regional Weather Roundup
Issued by NWS

Home | Current Version | Previous Version | Text Only | Print | Product List | Glossary On
Versions: 1 2 3 4 5 6 7 8 9 10 11 12 13 14 15 16 17 18 19 20 21 22 23 24 25 26 27 28 29 30 31 32 33 34 35 36 37 38 39 40 41 42 43 44 45 46 47 48 49 50
000
ASUS45 KBOI 021810
RWRID

IDAHO REGIONAL WEATHER ROUNDUP
NATIONAL WEATHER SERVICE BOISE ID
1200 PM MDT THU JUL 02 2015

NOTE: "FAIR" INDICATES FEW OR NO CLOUDS BELOW 12000 FEET
WITH NO SIGNIFICANT WEATHER AND/OR OBSTRUCTIONS TO VISIBILITY

IDZ012-014-021900-
SOUTHWEST IDAHO


CITY           SKY/WX    TMP DP  RH WIND       PRES   REMARKS
BOISE          SUNNY     91  49  23 NW9       30.00F
CALDWELL       SUNNY     90  48  24 W3        30.00F
MOUNTAIN HOME  SUNNY     96  40  14 W12G20    30.00S HX  92
$$

IDZ016-017-021900-
SOUTHCENTRAL IDAHO


CITY           SKY/WX    TMP DP  RH WIND       PRES   REMARKS
BURLEY         MOSUNNY   85  51  31 SW5       30.09F
JEROME         MOSUNNY   83  48  29 VRB3      30.10S
TWIN FALLS     MOSUNNY   91  43  18 W12       30.07F
$$

IDZ019>023-021900-
SOUTHEAST IDAHO


CITY           SKY/WX    TMP DP  RH WIND       PRES   REMARKS
IDAHO FALLS    SUNNY     82  51  34 VRB6      30.13F
POCATELLO      SUNNY     85  55  35 N8        30.12F
REXBURG        SUNNY     82  51  34 E5        30.14S
$$

IDZ006-010-011-018-031-032-021900-
CENTRAL IDAHO MOUNTAINS


CITY           SKY/WX    TMP DP  RH WIND       PRES   REMARKS
MCCALL         SUNNY     83  39  21 S6        30.16S
HAILEY         MOSUNNY   84  48  28 SE10      30.18F
STANLEY          N/A     81  37  20 VRB3      30.27F
SALMON         SUNNY     81  41  24 NW5       30.10F
CHALLIS        SUNNY     85  41  21 N5        30.16F
$$

IDZ002-004-006-007-026-021900-
NORTHERN IDAHO


CITY           SKY/WX    TMP DP  RH WIND       PRES   REMARKS
LEWISTON       SUNNY     89  50  26 N5        29.97F
LOWELL           N/A     83  51  33 N5        29.98F
COEUR D`ALENE  SUNNY     86  54  32 N9        30.02F
MULLAN PASS    SUNNY     72  44  36 CALM      30.27S
$$


USA.gov is the U.S. government's official web portal to all federal, state and local government web resources and services.